Regional Weather Roundup
Issued by NWS

Home | Current Version | Previous Version | Graphics & Text | Print | Product List | Glossary On
Versions: 1 2 3 4 5 6 7 8 9 10 11 12 13 14 15 16 17 18 19 20 21 22 23 24 25 26 27
000
ASUS43 KDMX 171207
RWRIA

WEATHER ROUNDUP FOR IOWA
NATIONAL WEATHER SERVICE DES MOINES IA
700 AM CDT THU APR 17 2014

NOTE: "FAIR" INDICATES FEW OR NO CLOUDS BELOW 12,000 FEET WITH NO
SIGNIFICANT WEATHER AND/OR OBSTRUCTIONS TO VISIBILITY.

* - THESE STATIONS ARE NOT NWS STATIONS...THUS NOT UNDER NWS
QUALITY CONTROL.  THEY ALSO DO NOT REPORT WEATHER SUCH
AS PRECIPITATION OR FOG.

IAZ001>003-012>014-020>022-031>034-043>046-171300-
   NORTHWEST IOWA

CITY           SKY/WX    TMP DP  RH WIND       PRES   REMARKS
CARROLL *      MOCLDY    32  25  74 NW14      30.22R WCI  22
CHEROKEE *     CLOUDY    29  25  86 N17       30.22R WCI  17
DENISON *      CLOUDY    30  27  86 N12G17    30.24R WCI  21
LE MARS *      CLOUDY    28  25  86 N12       30.25R WCI  18
ORANGE CITY *  PTCLDY    27  21  80 NW9       30.22R WCI  17
SHELDON *      CLEAR     25  21  86 NW14      30.21R WCI  13
SIOUX CITY     CLOUDY    30  23  75 N15       30.26R WCI  19
6HR MIN TEMP:  30; 6HR MAX TEMP:  34;

SPENCER        CLEAR     25  21  85 NW16      30.19R WCI  12
6HR MIN TEMP:  25; 6HR MAX TEMP:  30;

STORM LAKE *   CLOUDY    27  25  93 NW13      30.21R WCI  16
$$

IAZ055>058-069>071-079>083-090>094-171300-
   SOUTHWEST IOWA

CITY           SKY/WX    TMP DP  RH WIND       PRES   REMARKS
ATLANTIC *     CLOUDY    32  27  80 N14       30.23R WCI  22
AUDUBON *      MOCLDY    30  25  80 NW10      30.24R WCI  21
CLARINDA *     CLOUDY    34  28  80 N12G17    30.26R WCI  25
COUNCIL BLFS * CLOUDY    32  27  80 NW15      30.24R WCI  22
CRESTON *      CLOUDY    32  27  80 N17G24    30.21R WCI  21
HARLAN  *      CLOUDY    32  27  80 NW13      30.28R WCI  22
LAMONI         CLOUDY    34  28  79 N13       30.20R WCI  25
6HR MIN TEMP:  34; 6HR MAX TEMP:  40;

RED OAK *      CLOUDY    34  27  75 NW13      30.25R WCI  25
SHENANDOAH *   CLOUDY    34  27  75 N13       30.27R WCI  25
$$

IAZ047>049-059>061-072>074-084-171300-
   CENTRAL IOWA

CITY           SKY/WX    TMP DP  RH WIND       PRES   REMARKS
AMES           CLOUDY    33  28  81 NW12      30.19R WCI  24
6HR MIN TEMP:  32; 6HR MAX TEMP:  36;

ANKENY *       CLOUDY    34  30  86 NW12      30.19R WCI  25
CHARITON *     CLOUDY    34  30  86 NW9G18    30.19R WCI  26
DES MOINES     CLOUDY    36  28  73 NW18      30.20R WCI  26
6HR MIN TEMP:  34; 6HR MAX TEMP:  39;

GRINNELL*      CLOUDY    33  30  88 W15       30.16R WCI  23
KNOXVILLE *    CLOUDY    34  28  80 NW14      30.19R WCI  24
MARSHALLTOWN   CLOUDY    32  29  88 NW13      30.16R WCI  22
6HR MIN TEMP:  32; 6HR MAX TEMP:  38;

NEWTON *       CLOUDY    34  30  86 W12G17    30.18R WCI  25
PELLA *        MOCLDY    35  31  85 W15       30.19R WCI  25
PERRY *        CLOUDY    33  27  79 NW12      30.21R WCI  24
$$

IAZ004>006-015-016-023>025-035-036-171300-
   NORTH CENTRAL IOWA

CITY           SKY/WX    TMP DP  RH WIND       PRES   REMARKS
ALGONA *       CLOUDY    28  25  86 N16G28    30.17R WCI  17
CLARION *      CLOUDY    30  27  86 NW17G24   30.17R WCI  18
ESTHERVILLE    CLEAR     24  22  91 NW16      30.17R WCI  11
6HR MIN TEMP:  24; 6HR MAX TEMP:  29;

FORT DODGE *   CLOUDY    30  23  74 N7        30.21R WCI  23
MASON CITY     CLOUDY    30  28  92 NW18      30.13R WCI  18
6HR MIN TEMP:  30; 6HR MAX TEMP:  33;

FOREST CITY *  CLOUDY    30  30 100 NW16G24   30.11R WCI  19
IOWA FALLS *   CLOUDY    31  28  88 NW14G23   30.17R WCI  21
$$

IAZ007>011-017>019-026>030-037>042-050>054-066-171300-
   NORTHEAST IOWA

CITY           SKY/WX    TMP DP  RH WIND       PRES   REMARKS
CEDAR RAPIDS   CLOUDY    35  29  78 W20       30.12R WCI  24
6HR MIN TEMP:  35; 6HR MAX TEMP:  45;

CHARLES CITY * CLOUDY    32  30  93 NW14      30.10R WCI  22
CLINTON *      CLOUDY    39  34  81 W21       30.12R WCI  29
DECORAH *      CLOUDY    34  34 100 W9G21     30.05R FOG     WCI  26
DUBUQUE        CLOUDY    36  32  85 W21       30.06R WCI  25
6HR MIN TEMP:  36; 6HR MAX TEMP:  44;

MONTICELLO *   CLOUDY    37  32  81 W17G24    30.09R WCI  28
OELWEIN *      CLOUDY   N/A N/A N/A W20G25    30.10R
WATERLOO       CLOUDY    33  29  85 NW10      30.12R WCI  25
6HR MIN TEMP:  33; 6HR MAX TEMP:  45;

$$

IAZ064-065-067-068-078-171300-
   EAST CENTRAL IOWA

CITY           SKY/WX    TMP DP  RH WIND       PRES   REMARKS
DAVENPORT      CLOUDY    40  34  79 W15       30.12R WCI  32
6HR MIN TEMP:  40; 6HR MAX TEMP:  48;

IOWA CITY      MOCLDY    37  32  82 W15       30.16R WCI  28
6HR MIN TEMP:  36; 6HR MAX TEMP:  46;

MT. PLEASANT * CLOUDY    40  33  75 W10       30.17R WCI  33
MUSCATINE *    CLOUDY    39  32  75 W18G26    30.15R WCI  30
QUAD CITIES    CLOUDY    41  34  76 W13       30.12R
6HR MIN TEMP:  41; 6HR MAX TEMP:  47;

$$

IAZ062-063-075>077-085>089-095>099-171300-
   SOUTHEAST IOWA

CITY           SKY/WX    TMP DP  RH WIND       PRES   REMARKS
BURLINGTON     CLOUDY    42  36  79 NW10G20   30.15R
6HR MIN TEMP:  42; 6HR MAX TEMP:  48;

FAIRFIELD *    CLOUDY    37  32  81 W14G21    30.18R WCI  29
FORT MADISON * CLOUDY    43  37  81 NW13      30.16R
KEOKUK *       CLOUDY    43  37  81 W8        30.16R
OSKALOOSA *    CLOUDY    36  32  86 NW15      30.18R WCI  26
CENTERVILLE *  CLOUDY    36  32  87 NW9       30.20R WCI  29
OTTUMWA        CLOUDY    37  30  75 NW12      30.17R WCI  29
6HR MIN TEMP:  37; 6HR MAX TEMP:  45;

WASHINGTON *   CLOUDY    37  34  87 W16       30.16R WCI  28
$$

ABBREVIATIONS USED IN REMARKS
   TC - TEMPERATURES IN CELSIUS
  WCI - WIND CHILL INDEX
   HX - HEAT INDEX
  VSB - VISIBILITY
$$




USA.gov is the U.S. government's official web portal to all federal, state and local government web resources and services.